date,it,sc,msc,dt,rho,mx,my,mz,p,bx,by,bz,pmin,pmax,dst_sm,dstflx_R=3.0
2011-08-05 15:00:00,50000,0,0,0.0,4.31361,-3.02782e-15,4.63459e-17,-6.25709e-17,0.00864422,0.119839,0.314623,2.16974,4.71045e-05,1.0127,2.15456,-0.836985
2011-08-05 15:01:00,52114,0,0,0.0138909,4.31502,-3.02899e-15,4.62457e-17,-6.25277e-17,0.00864436,0.119835,0.310184,2.17249,4.62088e-05,1.01299,2.1472,-0.746439
2011-08-05 15:02:00,54227,0,0,0.0230192,4.31878,-3.03166e-15,4.59408e-17,-6.24255e-17,0.00865058,0.119835,0.301845,2.17642,4.54482e-05,1.01052,2.1846,-0.669022
2011-08-05 15:03:00,56340,0,0,0.022534,4.32276,-3.0344e-15,4.54649e-17,-6.23768e-17,0.008658,0.119842,0.301981,2.17618,4.49708e-05,1.00975,2.30121,-0.601579
2011-08-05 15:04:00,58453,0,0,0.021214,4.32594,-3.03651e-15,4.48392e-17,-6.25524e-17,0.00866348,0.119855,0.304003,2.17463,4.43785e-05,1.01402,2.40577,-0.483421
2011-08-05 15:05:00,60566,0,0,0.0149776,4.32898,-3.0384e-15,4.40545e-17,-6.30732e-17,0.00866974,0.119871,0.300665,2.17401,4.39258e-05,1.01597,2.50092,-0.353624
2011-08-05 15:06:00,62679,0,0,0.0117066,4.33186,-3.04014e-15,4.32263e-17,-6.38124e-17,0.00867623,0.119886,0.295482,2.1749,4.36474e-05,0.972299,2.59184,-0.19498
2011-08-05 15:07:00,64792,0,0,0.0125058,4.33412,-3.04144e-15,4.24188e-17,-6.46104e-17,0.00868011,0.119898,0.29253,2.17826,4.32436e-05,0.963723,2.72992,-0.0155767
2011-08-05 15:08:00,66905,0,0,0.00898368,4.33462,-3.04141e-15,4.15148e-17,-6.54629e-17,0.00867568,0.119908,0.298305,2.18027,1.5e-05,0.924637,2.82996,0.0790035
2011-08-05 15:09:00,69018,0,0,4.97198e-05,4.33284,-3.03973e-15,4.06861e-17,-6.62665e-17,0.0086655,0.11992,0.313424,2.17886,1.5e-05,0.861087,3.06675,0.280629
2011-08-05 15:10:00,71130,0,0,0.0177286,4.3291,-3.0368e-15,4.02674e-17,-6.68873e-17,0.00865861,0.119933,0.319468,2.1809,1.5e-05,0.865599,3.10682,0.428335
2011-08-05 15:11:00,73242,0,0,0.00817464,4.32255,-3.03198e-15,3.99665e-17,-6.73278e-17,0.00864596,0.119946,0.31158,2.18666,1.5e-05,0.86565,3.14376,0.523427
2011-08-05 15:12:00,75353,0,0,0.0244072,4.31343,-3.02528e-15,3.94286e-17,-6.7698e-17,0.00862175,0.119955,0.306697,2.18988,1.5e-05,0.866937,3.31387,0.683148
2011-08-05 15:13:00,77464,0,0,0.00814811,4.30125,-3.01614e-15,3.84597e-17,-6.82917e-17,0.0085984,0.119955,0.306653,2.19182,1.5e-05,0.861932,3.47156,0.824091
2011-08-05 15:14:00,79574,0,0,0.0207278,4.29327,-3.00998e-15,3.76394e-17,-6.88346e-17,0.00857878,0.119946,0.311393,2.19344,1.5e-05,0.844328,3.3631,0.768753
2011-08-05 15:15:00,81684,0,0,0.0135418,4.28429,-3.00324e-15,3.68508e-17,-6.93235e-17,0.00855584,0.119936,0.317472,2.19647,1.5e-05,0.820869,3.24197,0.724096
2011-08-05 15:16:00,83794,0,0,0.011537,4.27544,-2.99677e-15,3.62827e-17,-6.97559e-17,0.00852885,0.119923,0.325855,2.1994,1.5e-05,0.807183,3.26102,0.758244
2011-08-05 15:17:00,85904,0,0,0.010347,4.26839,-2.99178e-15,3.61019e-17,-7.01681e-17,0.00849751,0.119899,0.336645,2.19979,1.5e-05,0.775215,3.06503,0.564641
2011-08-05 15:18:00,88014,0,0,0.0121423,4.26162,-2.98687e-15,3.57837e-17,-7.05951e-17,0.0084671,0.119866,0.346237,2.1989,1.5e-05,0.708154,2.7496,0.345968
2011-08-05 15:19:00,90124,0,0,0.0163934,4.25355,-2.98061e-15,3.48141e-17,-7.10695e-17,0.00844391,0.119827,0.358249,2.19728,1.5e-05,0.659128,2.56076,0.229842
2011-08-05 15:20:00,92235,0,0,0.00407282,4.24637,-2.97458e-15,3.35835e-17,-7.17467e-17,0.00842283,0.119776,0.366784,2.19382,1.5e-05,0.649573,2.5374,0.219828
2011-08-05 15:21:00,94346,0,0,0.0257607,4.24158,-2.96991e-15,3.24399e-17,-7.27056e-17,0.00839856,0.119724,0.364181,2.19105,1.5e-05,0.66852,2.58593,0.281331
2011-08-05 15:22:00,96458,0,0,0.0149856,4.23655,-2.96482e-15,3.12863e-17,-7.36104e-17,0.00836921,0.119669,0.354796,2.18799,1.5e-05,0.686306,2.72708,0.372268
2011-08-05 15:23:00,98570,0,0,0.0258871,4.22958,-2.95824e-15,3.01107e-17,-7.42626e-17,0.00833567,0.119609,0.340634,2.1825,1.5e-05,0.701865,2.9756,0.536425
2011-08-05 15:24:00,100683,0,0,0.00113799,4.22248,-2.95156e-15,2.92772e-17,-7.49239e-17,0.0083058,0.119536,0.319287,2.17786,1.5e-05,0.725712,3.13458,0.668325
2011-08-05 15:25:00,102795,0,0,0.0245549,4.21672,-2.94595e-15,2.90985e-17,-7.58079e-17,0.00828644,0.119449,0.282247,2.17394,1.5e-05,0.713563,3.13723,0.650724
2011-08-05 15:26:00,104907,0,0,0.00681485,4.2118,-2.94093e-15,2.9123e-17,-7.68284e-17,0.00827167,0.119347,0.234087,2.16804,1.5e-05,0.649262,2.92931,0.483858
2011-08-05 15:27:00,107018,0,0,0.0132521,4.20723,-2.93601e-15,2.88871e-17,-7.78953e-17,0.00825756,0.11923,0.186521,2.16166,1.5e-05,0.591167,2.90122,0.509861
2011-08-05 15:28:00,109129,0,0,0.0151097,4.20195,-2.93033e-15,2.85118e-17,-7.89584e-17,0.00824122,0.119109,0.138664,2.15503,1.5e-05,0.630345,3.10299,0.651902
2011-08-05 15:29:00,111240,0,0,0.0230641,4.19494,-2.92311e-15,2.81157e-17,-7.99784e-17,0.00822022,0.118985,0.0884844,2.14772,1.5e-05,0.649056,3.27445,0.753022
2011-08-05 15:30:00,113351,0,0,0.0246159,4.18727,-2.91523e-15,2.75978e-17,-8.11173e-17,0.00819863,0.118855,0.0381581,2.13837,1.5e-05,0.630497,3.41398,0.816879
2011-08-05 15:31:00,115463,0,0,0.00224009,4.17973,-2.9074e-15,2.68817e-17,-8.24643e-17,0.00818021,0.118715,-0.0129966,2.12477,1.5e-05,0.612464,3.69871,0.964986
2011-08-05 15:32:00,117575,0,0,0.0101962,4.17127,-2.89888e-15,2.60554e-17,-8.37425e-17,0.00816354,0.11855,-0.0658842,2.1077,1.5e-05,0.627473,3.87296,1.00959
2011-08-05 15:33:00,119687,0,0,0.0140093,4.16147,-2.88942e-15,2.52001e-17,-8.48354e-17,0.00814801,0.118366,-0.120282,2.08915,1.5e-05,0.602902,3.91866,0.993152
2011-08-05 15:34:00,121799,0,0,0.00959827,4.15139,-2.87981e-15,2.43426e-17,-8.5982e-17,0.00813576,0.118173,-0.175353,2.06697,1.5e-05,0.572077,4.02611,0.981791
2011-08-05 15:35:00,123910,0,0,0.0275656,4.1406,-2.86979e-15,2.34346e-17,-8.72267e-17,0.00812427,0.117973,-0.230786,2.04174,1.5e-05,0.554739,4.0454,0.928699
2011-08-05 15:36:00,126021,0,0,0.0184871,4.12714,-2.85801e-15,2.2369e-17,-8.83894e-17,0.00810643,0.117764,-0.287343,2.01332,1.5e-05,0.524068,4.03444,0.831567
2011-08-05 15:37:00,128132,0,0,0.0180426,4.1117,-2.84488e-15,2.12957e-17,-8.95179e-17,0.00808457,0.117547,-0.343606,1.979,1.5e-05,0.571415,4.17522,0.837482
2011-08-05 15:38:00,130244,0,0,0.00127003,4.0964,-2.83179e-15,2.04741e-17,-9.07916e-17,0.00806605,0.117318,-0.397475,1.94046,1.5e-05,0.614941,4.31577,0.835901
2011-08-05 15:39:00,132356,0,0,0.00626298,4.08079,-2.8184e-15,1.97193e-17,-9.20477e-17,0.00804272,0.117077,-0.447409,1.90191,1.5e-05,0.635104,4.32132,0.802034
2011-08-05 15:40:00,134468,0,0,0.000653554,4.06382,-2.80395e-15,1.87594e-17,-9.31126e-17,0.00800656,0.116831,-0.496852,1.86895,1.5e-05,0.621606,4.18635,0.770238
2011-08-05 15:41:00,136579,0,0,0.0216476,4.04602,-2.7888e-15,1.76272e-17,-9.42039e-17,0.00796725,0.116579,-0.547658,1.84067,1.5e-05,0.59689,4.12508,0.778058
2011-08-05 15:42:00,138690,0,0,0.0191814,4.02937,-2.77428e-15,1.65027e-17,-9.55656e-17,0.00793173,0.116324,-0.596978,1.81268,1.5e-05,0.567558,4.07426,0.717799
2011-08-05 15:43:00,140801,0,0,0.0109323,4.01646,-2.76217e-15,1.56553e-17,-9.73439e-17,0.00789977,0.116066,-0.635615,1.77853,1.5e-05,0.520708,4.06333,0.552675
2011-08-05 15:44:00,142912,0,0,0.0028912,4.00543,-2.75136e-15,1.50342e-17,-9.92076e-17,0.00786378,0.115804,-0.666075,1.73919,1.5e-05,0.50837,3.98354,0.405836
2011-08-05 15:45:00,145022,0,0,0.0256651,3.99324,-2.73989e-15,1.44286e-17,-1.00745e-16,0.00781854,0.115533,-0.700518,1.70502,1.5e-05,0.506754,3.68441,0.242151
2011-08-05 15:46:00,147132,0,0,0.0257185,3.98185,-2.72897e-15,1.3897e-17,-1.0219e-16,0.00777272,0.115255,-0.736493,1.67367,1.5e-05,0.511227,3.51973,0.119236
2011-08-05 15:47:00,149242,0,0,0.0275946,3.97251,-2.71937e-15,1.34724e-17,-1.03683e-16,0.00773183,0.114971,-0.772833,1.64208,1.5e-05,0.51078,3.40239,0.0280344
2011-08-05 15:48:00,151352,0,0,0.0253981,3.96336,-2.70988e-15,1.30597e-17,-1.05009e-16,0.00769123,0.114673,-0.809667,1.6125,1.5e-05,0.507952,3.24521,-0.107581
2011-08-05 15:49:00,153462,0,0,0.0216458,3.95488,-2.70079e-15,1.25534e-17,-1.06101e-16,0.00764914,0.114364,-0.846391,1.58464,1.5e-05,0.519073,3.10326,-0.181757
2011-08-05 15:50:00,155572,0,0,0.0162661,3.94886,-2.69323e-15,1.1896e-17,-1.06989e-16,0.00760727,0.114043,-0.880548,1.55865,1.5e-05,0.50764,3.2358,-0.0295278
2011-08-05 15:51:00,157682,0,0,0.00520902,3.9434,-2.68595e-15,1.12833e-17,-1.07507e-16,0.00756765,0.113715,-0.909071,1.53074,1.5e-05,0.507941,3.58312,0.160561
2011-08-05 15:52:00,159791,0,0,0.0166734,3.93587,-2.67727e-15,1.08427e-17,-1.07595e-16,0.00753017,0.113377,-0.936132,1.50763,1.5e-05,0.514322,3.56695,0.19084
2011-08-05 15:53:00,161899,0,0,0.0282775,3.92434,-2.66583e-15,1.02472e-17,-1.0763e-16,0.00749063,0.113031,-0.968681,1.49243,1.5e-05,0.510728,3.50112,0.207882
2011-08-05 15:54:00,164007,0,0,0.0191167,3.90827,-2.65122e-15,9.38134e-18,-1.07847e-16,0.00744649,0.112684,-1.00598,1.47435,1.5e-05,0.521888,3.62997,0.24478
2011-08-05 15:55:00,166115,0,0,0.00810359,3.88972,-2.63483e-15,8.466640000000001e-18,-1.08197e-16,0.0073988,0.112331,-1.04311,1.45233,1.5e-05,0.538833,3.87829,0.386543
2011-08-05 15:56:00,168222,0,0,0.0127342,3.87025,-2.61765e-15,7.5961e-18,-1.08575e-16,0.00734728,0.111974,-1.07957,1.42982,1.5e-05,0.545643,3.89772,0.384774
2011-08-05 15:57:00,170328,0,0,0.0242168,3.8508,-2.60018e-15,6.749450000000001e-18,-1.08854e-16,0.00729203,0.111622,-1.11365,1.40703,1.5e-05,0.560681,4.00427,0.448
2011-08-05 15:58:00,172434,0,0,0.0127386,3.83097,-2.58226e-15,5.81435e-18,-1.09305e-16,0.00723487,0.111267,-1.14484,1.38187,1.5e-05,0.573395,4.2236,0.555273
2011-08-05 15:59:00,174540,0,0,0.00171087,3.81017,-2.56368e-15,4.6843000000000006e-18,-1.10064e-16,0.00717726,0.110915,-1.17636,1.35525,1.5e-05,0.573096,4.20196,0.486507
2011-08-05 16:00:00,176645,0,0,0.0156385,3.78915,-2.54492e-15,3.3436900000000004e-18,-1.10664e-16,0.00711908,0.110565,-1.2074,1.32996,1.5e-05,0.589637,3.90164,0.252507
2011-08-05 16:01:00,178749,0,0,0.0264755,3.7676,-2.52596e-15,1.99189e-18,-1.1087e-16,0.00706119,0.110221,-1.23974,1.30675,1.5e-05,0.598517,3.4585,-0.01914
2011-08-05 16:02:00,180853,0,0,0.0186739,3.747,-2.5079e-15,8.04022e-19,-1.10898e-16,0.00700641,0.109882,-1.26993,1.28249,1.5e-05,0.600946,3.25862,-0.170018
2011-08-05 16:03:00,182957,0,0,0.0275149,3.73219,-2.49371e-15,-2.9844e-19,-1.11072e-16,0.00695954,0.109549,-1.29574,1.25467,1.5e-05,0.602334,3.22575,-0.257354
2011-08-05 16:04:00,185062,0,0,0.016415,3.72277,-2.48325e-15,-1.2673100000000001e-18,-1.11498e-16,0.00691909,0.10922,-1.32111,1.22757,1.5e-05,0.5957,3.17498,-0.314435
2011-08-05 16:05:00,187168,0,0,0.00908104,3.71522,-2.47436e-15,-2.02141e-18,-1.12068e-16,0.00688174,0.108916,-1.34384,1.20355,1.5e-05,0.599436,3.22617,-0.268955
2011-08-05 16:06:00,189274,0,0,0.0246427,3.70836,-2.46611e-15,-2.6040800000000004e-18,-1.12734e-16,0.00684778,0.108641,-1.36633,1.18039,1.5e-05,0.607246,3.33923,-0.217901
2011-08-05 16:07:00,191381,0,0,0.00307543,3.7023,-2.4585e-15,-3.0656e-18,-1.13403e-16,0.00681811,0.108378,-1.39027,1.15691,1.5e-05,0.593669,3.3412,-0.240645
2011-08-05 16:08:00,193488,0,0,0.00361061,3.6982,-2.45228e-15,-3.4300800000000005e-18,-1.14067e-16,0.00679323,0.108126,-1.41507,1.13295,1.5e-05,0.603674,3.43758,-0.179188
2011-08-05 16:09:00,195594,0,0,0.0253742,3.69742,-2.44838e-15,-3.68553e-18,-1.14903e-16,0.00677257,0.107891,-1.44024,1.10946,1.5e-05,0.608901,3.44425,-0.144296
2011-08-05 16:10:00,197700,0,0,0.0241626,3.69948,-2.44651e-15,-3.91714e-18,-1.15802e-16,0.00675773,0.107665,-1.46697,1.08633,1.5e-05,0.606859,3.57761,-0.0296113
2011-08-05 16:11:00,199807,0,0,0.0047403,3.70267,-2.44551e-15,-4.22035e-18,-1.16497e-16,0.00675046,0.107446,-1.49652,1.06196,1.5e-05,0.603315,3.80628,0.107255
2011-08-05 16:12:00,201914,0,0,0.0116981,3.70713,-2.44542e-15,-4.41141e-18,-1.17098e-16,0.00674652,0.107238,-1.5248,1.03902,1.5e-05,0.606005,3.94727,0.193493
2011-08-05 16:13:00,204021,0,0,0.0103994,3.71418,-2.44709e-15,-4.5080500000000004e-18,-1.17642e-16,0.00674239,0.107043,-1.55145,1.01627,1.5e-05,0.609776,3.98559,0.168123
2011-08-05 16:14:00,206128,0,0,0.00773834,3.72551,-2.45164e-15,-4.8717400000000005e-18,-1.17961e-16,0.00674,0.106868,-1.57684,0.995043,1.5e-05,0.610034,3.91598,0.150707
2011-08-05 16:15:00,208235,0,0,0.00500652,3.73706,-2.45654e-15,-5.340600000000001e-18,-1.18675e-16,0.00673376,0.106715,-1.60276,0.973284,1.5e-05,0.627087,4.05149,0.240211
2011-08-05 16:16:00,210342,0,0,0.00455632,3.74469,-2.45915e-15,-5.605290000000001e-18,-1.2018e-16,0.0067202,0.106574,-1.62875,0.949744,1.5e-05,0.634087,4.30119,0.430195
2011-08-05 16:17:00,212449,0,0,0.0112659,3.75021,-2.46055e-15,-5.71306e-18,-1.21816e-16,0.00670721,0.106441,-1.65659,0.928393,1.5e-05,0.634938,4.49222,0.556743
2011-08-05 16:18:00,214556,0,0,0.0129234,3.7534,-2.46052e-15,-5.863250000000001e-18,-1.23215e-16,0.00669928,0.106324,-1.68727,0.913622,1.5e-05,0.633318,4.42777,0.602082
2011-08-05 16:19:00,216663,0,0,0.00849779,3.75214,-2.4576e-15,-6.27007e-18,-1.2439e-16,0.00669445,0.106224,-1.72243,0.897682,1.5e-05,0.634244,4.62692,0.685394
2011-08-05 16:20:00,218770,0,0,0.0155274,3.74893,-2.45338e-15,-6.6020700000000005e-18,-1.24891e-16,0.0066921,0.106141,-1.75838,0.886096,1.5e-05,0.633307,4.59221,0.821991
2011-08-05 16:21:00,220877,0,0,0.0176386,3.74516,-2.44873e-15,-6.61641e-18,-1.24602e-16,0.00668598,0.106076,-1.79558,0.881501,1.5e-05,0.653371,4.77498,1.00569
2011-08-05 16:22:00,222984,0,0,0.0110709,3.73705,-2.44117e-15,-6.596450000000001e-18,-1.24283e-16,0.0066674,0.106013,-1.84119,0.867629,1.5e-05,0.650907,5.0382,1.04653
2011-08-05 16:23:00,225091,0,0,0.00437695,3.72519,-2.43114e-15,-6.5295000000000006e-18,-1.24067e-16,0.00663845,0.105949,-1.88858,0.855146,1.5e-05,0.643208,4.83185,0.909145
2011-08-05 16:24:00,227197,0,0,0.0193578,3.71284,-2.42083e-15,-6.2407e-18,-1.23668e-16,0.00660775,0.105894,-1.93552,0.850381,1.5e-05,0.649665,4.42396,0.704117
2011-08-05 16:25:00,229303,0,0,0.00490142,3.70095,-2.41097e-15,-5.897220000000001e-18,-1.2309e-16,0.00657815,0.105847,-1.98186,0.846975,1.5e-05,0.668298,4.06536,0.456347
2011-08-05 16:26:00,231408,0,0,0.0229359,3.68998,-2.40186e-15,-5.6685500000000005e-18,-1.22431e-16,0.0065522,0.105803,-2.02609,0.840714,1.5e-05,0.678435,3.66853,0.147418
2011-08-05 16:27:00,233513,0,0,0.0265338,3.68045,-2.39373e-15,-5.4868100000000005e-18,-1.2183e-16,0.00653315,0.105756,-2.0667,0.830283,1.5e-05,0.649728,3.27067,-0.166284
2011-08-05 16:28:00,235619,0,0,0.0224916,3.67556,-2.38856e-15,-5.557790000000001e-18,-1.21458e-16,0.00652447,0.10572,-2.09633,0.82088,1.5e-05,0.652944,2.90221,-0.38981
2011-08-05 16:29:00,237726,0,0,0.0143189,3.67919,-2.38889e-15,-6.3388900000000005e-18,-1.21431e-16,0.00652888,0.105691,-2.1078,0.811089,1.5e-05,0.667637,2.79755,-0.467993
2011-08-05 16:30:00,239833,0,0,0.0245959,3.68626,-2.39142e-15,-7.366510000000001e-18,-1.21356e-16,0.0065341,0.105661,-2.11373,0.800297,1.5e-05,0.64721,2.52949,-0.645469
2011-08-05 16:31:00,241941,0,0,0.00856857,3.6914,-2.3927e-15,-8.129690000000001e-18,-1.20883e-16,0.00653212,0.105645,-2.12359,0.791253,1.5e-05,0.670732,2.53059,-0.569198
2011-08-05 16:32:00,244049,0,0,0.00765035,3.69646,-2.39412e-15,-9.011820000000001e-18,-1.20169e-16,0.00652974,0.105618,-2.13078,0.784518,1.5e-05,0.664602,2.57728,-0.435551
2011-08-05 16:33:00,246157,0,0,0.0132474,3.70275,-2.39654e-15,-1.00239e-17,-1.19487e-16,0.00653016,0.105569,-2.13394,0.779905,1.5e-05,0.679691,2.83619,-0.178072
2011-08-05 16:34:00,248265,0,0,0.0134271,3.71053,-2.39992e-15,-1.08509e-17,-1.19134e-16,0.0065328,0.105496,-2.13306,0.772527,1.5e-05,0.670576,3.06433,-0.0501859
2011-08-05 16:35:00,250373,0,0,0.0194913,3.71952,-2.40404e-15,-1.16193e-17,-1.19117e-16,0.00653747,0.105435,-2.12631,0.762094,1.5e-05,0.675016,3.42473,0.181233
2011-08-05 16:36:00,252481,0,0,0.00166658,3.72971,-2.40899e-15,-1.25187e-17,-1.19281e-16,0.00654418,0.105388,-2.11611,0.752892,1.5e-05,0.677364,4.12543,0.725129
2011-08-05 16:37:00,254589,0,0,0.00575519,3.74171,-2.41532e-15,-1.33847e-17,-1.19492e-16,0.00655521,0.105351,-2.10701,0.743797,1.5e-05,0.707,4.61387,1.00888
2011-08-05 16:38:00,256696,0,0,0.0269281,3.75652,-2.42373e-15,-1.40884e-17,-1.19506e-16,0.00657036,0.105331,-2.09629,0.73544,1.5e-05,0.70633,4.88181,1.21014
2011-08-05 16:39:00,258803,0,0,0.0173018,3.77494,-2.43468e-15,-1.45897e-17,-1.19102e-16,0.0065884,0.10531,-2.08257,0.736426,1.5e-05,0.729324,4.87588,1.3577
2011-08-05 16:40:00,260910,0,0,0.008787,3.79646,-2.44778e-15,-1.483e-17,-1.184e-16,0.00660892,0.105282,-2.06849,0.744697,1.5e-05,0.724465,4.80071,1.40081
2011-08-05 16:41:00,263017,0,0,0.00034563,3.81951,-2.46191e-15,-1.4753e-17,-1.17549e-16,0.00663215,0.105256,-2.04975,0.754351,1.5e-05,0.746424,4.78796,1.41346
2011-08-05 16:42:00,265123,0,0,0.0269576,3.84181,-2.47551e-15,-1.43353e-17,-1.16427e-16,0.00665733,0.105237,-2.02882,0.76789,1.5e-05,0.761891,4.72249,1.45658
2011-08-05 16:43:00,267229,0,0,0.0235759,3.85919,-2.48609e-15,-1.40272e-17,-1.15572e-16,0.00668283,0.105225,-2.02037,0.779493,1.5e-05,0.783053,4.90883,1.55278
2011-08-05 16:44:00,269335,0,0,0.0242075,3.86828,-2.49165e-15,-1.41884e-17,-1.15411e-16,0.00670379,0.105193,-2.02709,0.783338,1.5e-05,0.790827,5.18799,1.6585
2011-08-05 16:45:00,271441,0,0,0.0270744,3.8707,-2.49294e-15,-1.43412e-17,-1.15308e-16,0.00671263,0.105147,-2.03724,0.7866,1.5e-05,0.785124,5.33834,1.76555
2011-08-05 16:46:00,273548,0,0,0.00484732,3.86971,-2.49187e-15,-1.42308e-17,-1.14842e-16,0.00671087,0.105087,-2.04396,0.7942,1.5e-05,0.783689,5.49652,1.94023
2011-08-05 16:47:00,275655,0,0,0.00965416,3.8672,-2.4898e-15,-1.40241e-17,-1.14055e-16,0.00670561,0.105012,-2.04969,0.806068,1.5e-05,0.806901,5.65433,2.10677
2011-08-05 16:48:00,277762,0,0,0.00876697,3.86416,-2.48744e-15,-1.37055e-17,-1.13095e-16,0.00669928,0.104921,-2.0573,0.818645,1.5e-05,0.819895,5.8268,2.23635
2011-08-05 16:49:00,279869,0,0,0.0075895,3.86108,-2.48516e-15,-1.33063e-17,-1.12144e-16,0.00669284,0.104822,-2.06437,0.830453,1.5e-05,0.830099,5.87304,2.24579
2011-08-05 16:50:00,281976,0,0,0.0007762,3.85837,-2.4833e-15,-1.30787e-17,-1.11304e-16,0.0066878,0.104716,-2.07093,0.844843,1.5e-05,0.850135,5.81993,2.2257
2011-08-05 16:51:00,284082,0,0,0.0144079,3.85409,-2.48049e-15,-1.30229e-17,-1.1021e-16,0.00668134,0.104604,-2.07839,0.859993,1.5e-05,0.85424,5.26754,1.77506
2011-08-05 16:52:00,286187,0,0,0.0181768,3.84601,-2.4751e-15,-1.29476e-17,-1.08457e-16,0.00667118,0.104474,-2.08485,0.8746,1.5e-05,0.854597,4.52041,1.24422
2011-08-05 16:53:00,288292,0,0,0.00581747,3.83681,-2.46913e-15,-1.28199e-17,-1.06626e-16,0.00666183,0.104328,-2.09172,0.8898,1.5e-05,0.867903,3.99553,0.920925
2011-08-05 16:54:00,290397,0,0,0.0203936,3.82863,-2.46416e-15,-1.26456e-17,-1.05177e-16,0.00665562,0.104162,-2.10121,0.906234,1.5e-05,0.860572,3.51376,0.66247
2011-08-05 16:55:00,292503,0,0,0.0224166,3.81975,-2.45887e-15,-1.24584e-17,-1.03814e-16,0.00664616,0.103979,-2.11372,0.920155,1.5e-05,0.83997,3.30022,0.477991
2011-08-05 16:56:00,294610,0,0,0.0281487,3.80935,-2.45258e-15,-1.22597e-17,-1.0234e-16,0.00663178,0.103785,-2.12703,0.934102,1.5e-05,0.832632,3.24063,0.505073
2011-08-05 16:57:00,296718,0,0,0.0179573,3.79789,-2.44558e-15,-1.20121e-17,-1.00786e-16,0.00661462,0.103585,-2.14077,0.952884,1.5e-05,0.827013,3.25596,0.581277
2011-08-05 16:58:00,298826,0,0,0.0177534,3.78596,-2.43822e-15,-1.16597e-17,-9.92498e-17,0.00659561,0.103389,-2.15563,0.970644,1.5e-05,0.810465,3.2246,0.553001
2011-08-05 16:59:00,300934,0,0,0.0191498,3.77459,-2.43123e-15,-1.12997e-17,-9.78279e-17,0.00657668,0.103204,-2.16975,0.985847,1.5e-05,0.795069,3.22309,0.581093
2011-08-05 17:00:00,303042,0,0,0.0240248,3.76503,-2.42547e-15,-1.11608e-17,-9.65816e-17,0.00656046,0.103027,-2.18451,0.998482,1.5e-05,0.791048,3.44986,0.798972
2011-08-05 17:01:00,305150,0,0,0.018434,3.75701,-2.42071e-15,-1.1042e-17,-9.54794e-17,0.00654365,0.102853,-2.19906,1.00686,1.5e-05,0.781623,3.70682,0.9325
2011-08-05 17:02:00,307258,0,0,0.0120716,3.74999,-2.41656e-15,-1.06455e-17,-9.45045e-17,0.0065223,0.102685,-2.21471,1.01181,1.5e-05,0.77228,3.82789,0.958607
2011-08-05 17:03:00,309366,0,0,0.00723854,3.74546,-2.41394e-15,-1.00642e-17,-9.3835e-17,0.0064997,0.102521,-2.23209,1.01441,1.5e-05,0.769714,3.90945,0.992607
2011-08-05 17:04:00,311474,0,0,0.00113877,3.74298,-2.41262e-15,-9.4367e-18,-9.33921e-17,0.00647807,0.102353,-2.24954,1.0174,1.5e-05,0.765413,3.82505,0.973399
2011-08-05 17:05:00,313581,0,0,0.0249009,3.74007,-2.41115e-15,-8.824790000000001e-18,-9.28482e-17,0.00645633,0.102193,-2.26832,1.02276,1.5e-05,0.7611,3.6992,0.947923
2011-08-05 17:06:00,315688,0,0,0.0274922,3.73437,-2.40783e-15,-8.226e-18,-9.23069e-17,0.00642997,0.102039,-2.28726,1.02782,1.5e-05,0.758108,3.76059,1.03504
2011-08-05 17:07:00,317795,0,0,0.0225581,3.72615,-2.40267e-15,-7.59349e-18,-9.18871e-17,0.00639778,0.101886,-2.30672,1.03178,1.5e-05,0.75256,3.81449,1.08499
2011-08-05 17:08:00,319902,0,0,0.0109725,3.71957,-2.39844e-15,-6.86158e-18,-9.14699e-17,0.00636547,0.101737,-2.32537,1.03291,1.5e-05,0.749043,3.92475,1.13639
2011-08-05 17:09:00,322009,0,0,0.000744622,3.71471,-2.39522e-15,-6.04202e-18,-9.09832e-17,0.00633366,0.101588,-2.34034,1.03446,1.5e-05,0.74115,3.94171,1.18387
2011-08-05 17:10:00,324115,0,0,0.0277448,3.70892,-2.39133e-15,-5.174730000000001e-18,-9.03931e-17,0.00630056,0.101442,-2.35447,1.04045,1.5e-05,0.743864,4.0504,1.36202
2011-08-05 17:11:00,326221,0,0,0.0219301,3.70267,-2.38712e-15,-4.19768e-18,-8.9621e-17,0.006269,0.101287,-2.37057,1.04645,1.5e-05,0.744882,4.24835,1.51166
2011-08-05 17:12:00,328327,0,0,0.019435,3.69546,-2.38234e-15,-2.97529e-18,-8.87099e-17,0.00623789,0.101127,-2.38835,1.05027,1.5e-05,0.761127,4.37699,1.56993
2011-08-05 17:13:00,330433,0,0,0.00787396,3.68618,-2.37636e-15,-1.50868e-18,-8.7771e-17,0.00620377,0.100973,-2.40561,1.05648,1.5e-05,0.801878,4.20884,1.51155
2011-08-05 17:14:00,332539,0,0,0.00465221,3.67543,-2.36969e-15,-4.1877599999999993e-20,-8.68303e-17,0.00616699,0.100799,-2.42151,1.06747,1.5e-05,0.788894,3.92163,1.4002
2011-08-05 17:15:00,334644,0,0,0.0281552,3.6645,-2.3632e-15,1.26333e-18,-8.60903e-17,0.00613206,0.100602,-2.43692,1.07938,1.5e-05,0.817264,3.9767,1.51694
2011-08-05 17:16:00,336749,0,0,0.0214364,3.65341,-2.35679e-15,2.4214200000000003e-18,-8.5586e-17,0.0060992,0.100405,-2.45006,1.09088,1.5e-05,0.856019,4.25896,1.79097
2011-08-05 17:17:00,338854,0,0,0.0194199,3.64008,-2.34885e-15,3.49177e-18,-8.48945e-17,0.00606051,0.100193,-2.46082,1.10342,1.5e-05,0.863392,4.27069,1.82433
2011-08-05 17:18:00,340959,0,0,0.0166125,3.62463,-2.33945e-15,4.5187000000000005e-18,-8.3987e-17,0.0060165,0.0999863,-2.47009,1.1178,1.5e-05,0.886419,4.45234,2.02102
2011-08-05 17:19:00,343064,0,0,0.0171891,3.60868,-2.32973e-15,5.4780300000000004e-18,-8.31254e-17,0.00597284,0.0997739,-2.47974,1.1323,1.5e-05,0.876451,4.52423,2.06595
2011-08-05 17:20:00,345169,0,0,0.0200557,3.59238,-2.31975e-15,6.294260000000001e-18,-8.23827e-17,0.0059302,0.0995641,-2.49242,1.14281,1.5e-05,0.902635,4.86383,2.26629
2011-08-05 17:21:00,347274,0,0,0.0152132,3.57733,-2.31053e-15,7.08582e-18,-8.1685e-17,0.00589022,0.0993531,-2.50784,1.1495,1.5e-05,0.901884,5.08622,2.37221
2011-08-05 17:22:00,349379,0,0,0.0118991,3.56539,-2.30327e-15,8.04991e-18,-8.09082e-17,0.00585551,0.0991452,-2.52394,1.15659,1.5e-05,0.91146,5.16526,2.42072
2011-08-05 17:23:00,351484,0,0,0.00417027,3.55502,-2.29706e-15,9.12084e-18,-8.00359e-17,0.00582499,0.0989305,-2.54055,1.16604,1.5e-05,0.928055,5.12328,2.42073
2011-08-05 17:24:00,353588,0,0,0.0237854,3.54498,-2.29117e-15,1.01771e-17,-7.90998e-17,0.00579689,0.0987147,-2.55767,1.17773,1.5e-05,0.921819,4.8782,2.29583
2011-08-05 17:25:00,355692,0,0,0.0188201,3.53646,-2.28632e-15,1.11562e-17,-7.81482e-17,0.00576972,0.0985002,-2.57597,1.18437,1.5e-05,0.92893,4.84636,2.20547
2011-08-05 17:26:00,357796,0,0,0.019147,3.52996,-2.2828e-15,1.1938e-17,-7.71681e-17,0.00574256,0.0982901,-2.59247,1.18772,1.5e-05,0.922188,4.64488,2.07626
2011-08-05 17:27:00,359901,0,0,0.000227971,3.52526,-2.28042e-15,1.238e-17,-7.60864e-17,0.00571709,0.0980823,-2.60349,1.19436,1.5e-05,0.915679,4.38585,1.95999
2011-08-05 17:28:00,362006,0,0,0.0134898,3.52393,-2.2801e-15,1.25684e-17,-7.50232e-17,0.00569478,0.0978811,-2.61093,1.20319,1.5e-05,0.917441,4.29201,1.99886